Lid_Strength_Index
1 -0 -1 -2 -2 -2 -2 -2 -2 -2 -2 -2 -2 -2 -2 -2 -2 -2 -2 -2 -2 -2 -2 -2 -2 -2 -2 -2 -2 -2 -2 -2 -2 -2 -2 -2 -2 -2 -2 -2 -3 -1 -2
0 -0 -1 -1 -2 -2 -2 -2 -2 -2 -2 -2 -2 -2 -2 -2 -2 -2 -2 -2 -2 -2 -2 -2 -2 -2 -2 -2 -2 -2 -2 -2 -1 -1 -1 -1 -2 -2 -2 -2 -3 -1 -2
0 -0 -0 -1 -2 -2 -2 -2 -2 -2 -2 -2 -2 -2 -2 -2 -2 -2 -2 -2 -2 -2 -2 -2 -2 -2 -2 -2 -2 -2 -2 -2 -2 -1 -2 -1 -1 -3 -2 -3 -3 -3 -2
0 -0 -0 -1 -1 -2 -2 -2 -2 -2 -2 -2 -2 -2 -2 -2 -2 -3 -2 -2 -2 -2 -2 -2 -2 -2 -2 -2 -2 -2 -2 -2 -1 -2 -1 -1 -1 -2 -3 -2 -2 -2 -2
0 -0 -0 -1 -1 -2 -2 -2 -2 -2 -2 -2 -2 -2 -2 -2 -2 -2 -2 -2 -2 -2 -2 -2 -2 -2 -2 -2 -2 -2 -2 -2 -2 -1 -0 -0 -1 -2 -2 -2 -2 -2 -2
0 -0 -1 -1 -1 -1 -1 -2 -2 -2 -2 -2 -2 -2 -2 -2 -2 -2 -2 -2 -2 -2 -2 -2 -2 -2 -2 -2 -2 -2 -2 -1 -1 -1 0 -1 -0 -2 -2 -2 -2 -2 -2
0 -0 -0 -1 -1 -1 -1 -2 -2 -2 -2 -2 -2 -2 -2 -2 -2 -2 -2 -2 -2 -2 -2 -2 -2 -2 -2 -2 -2 -2 -1 -1 -0 -1 -1 -1 -1 -2 -2 -2 -2 -2 -2
0 -0 -0 -0 -1 -1 -1 -1 -1 -2 -2 -2 -2 -2 -2 -2 -2 -2 -2 -2 -2 -2 -2 -2 -2 -2 -2 -2 -2 -2 -1 -1 -1 -0 0 -0 -2 -2 -2 -2 -2 -2 -2
-0 -0 -0 -0 -0 -0 -1 -1 -1 -1 -2 -2 -2 -2 -2 -2 -2 -3 -2 -3 -3 -2 -2 -2 -3 -2 -2 -2 -2 -2 -1 -1 -1 -0 0 0 -2 -2 -2 -2 -2 -2 -2
0 0 -0 -0 -0 -0 -0 -0 -1 -1 -1 -1 -1 -1 -1 -1 -2 -3 -2 -3 -3 -3 -3 -3 -3 -2 -4 -3 -2 -2 -1 -1 0 -0 0 -1 -2 -2 -2 -1 -2 -2 -2
1 0 -0 -0 -0 -0 -0 0 -0 -0 -0 -1 -1 -0 -0 0 -0 0 -1 -2 -2 -4 -3 -3 -4 -3 -2 -2 -2 -1 -1 1 1 0 0 -3 -2 -2 -2 -1 -2 -2 -2
2 1 0 -0 -0 -0 -0 -0 -0 -0 -0 -0 0 1 1 1 0 -0 -0 -2 -2 -3 -3 -3 -2 -2 -1 1 1 -0 1 1 1 0 -0 -2 -2 -2 -2 -2 -1 -1 -1
2 1 1 1 0 -0 -0 -0 0 0 1 1 1 1 1 1 1 1 1 1 0 -0 0 -1 0 1 2 1 1 2 2 2 2 1 -1 -2 -2 -2 -2 -2 -1 -1 -1
2 1 1 1 1 1 0 0 0 1 2 2 2 2 2 1 2 2 2 1 1 1 2 2 2 2 2 2 2 2 2 2 1 1 -1 -2 -2 -2 -2 -2 -2 -2 -1
2 1 2 1 1 1 1 1 1 1 2 2 3 3 2 2 3 3 3 2 2 1 2 2 2 2 2 1 2 2 2 2 2 1 -0 -1 -2 -2 -1 -2 -2 -2 -2
2 2 2 1 1 1 1 1 1 1 2 3 3 3 3 3 3 3 3 3 3 2 3 3 2 2 2 2 2 2 2 2 2 2 2 -0 -1 -2 -2 -2 -2 -2 -2
2 2 1 1 1 2 2 1 1 1 1 2 2 3 3 2 3 3 3 3 3 2 2 2 3 3 3 2 2 2 2 2 1 2 2 0 -0 -1 -2 -2 -1 -2 -1
2 2 1 1 1 1 1 1 0 0 1 2 2 2 2 1 2 4 3 3 3 2 2 3 3 3 3 2 3 3 2 2 1 1 1 1 1 -0 -1 -2 -2 -2 -1
2 2 2 1 1 1 1 1 1 0 1 1 2 2 2 2 2 3 3 3 3 3 3 3 4 3 4 4 3 3 2 2 2 2 2 1 1 0 1 -0 -0 -1 -2
6 4 3 2 2 2 1 1 1 1 1 1 1 2 2 2 2 3 3 3 3 3 3 4 5 5 5 5 3 4 4 3 2 2 2 2 1 1 1 2 3 2 -1
9 8 8 5 4 3 2 2 2 2 2 1 1 1 2 1 2 3 3 3 3 3 3 3 4 4 5 5 4 5 6 5 5 4 4 3 1 2 2 2 3 3 3
11 11 9 8 7 6 5 3 3 3 3 2 1 1 2 2 2 3 3 3 3 3 2 3 3 3 3 4 6 6 8 7 6 5 5 4 4 2 3 4 4 4 4
14 12 10 8 7 8 6 5 4 4 2 4 3 2 2 2 3 3 2 3 2 3 4 3 3 3 4 4 4 5 8 8 8 7 7 6 5 5 5 4 4 5 5
15 13 11 9 9 8 7 5 4 3 4 2 3 3 3 2 3 3 3 3 3 2 4 3 3 2 3 4 3 3 4 6 8 8 6 5 5 5 6 6 5 4 4
16 14 13 11 11 10 9 7 6 6 5 4 4 3 3 3 3 4 4 4 4 3 3 3 3 3 2 3 4 4 5 5 5 5 8 6 5 5 5 5 6 6 6
15 15 15 13 13 11 8 7 6 5 5 5 4 5 5 5 4 3 4 4 4 4 3 4 4 3 3 2 3 3 4 4 5 6 6 7 5 5 5 6 5 6 6